This demonstration page uses our WeatherBlox Daily Observations layout. Learn more.

Hourly Observations for July 29, 2017

Temp ( °F °C ) Dew Point ( °F °C ) Humidity (%) Winds ( mph kmh ) Pressure ( in mb ) Visibility ( mi km ) Precip ( " mm )
12:15 am 00:15 Cloudy with Heavy Rain 70 21 70 21 100 100 NNE 13 20 29.71 1006 3 4.828032 0 0
12:35 am 00:35 Cloudy with Heavy Rain 70 21 70 21 100 100 NE 16 26 29.71 1006 4 6.437376 0 0
12:55 am 00:55 Cloudy with Heavy Rain 70 21 70 21 100 100 NE 14 22 29.71 1006 5 8.04672 0 0
1:15 am 01:15 Cloudy with Light Rain 70 21 70 21 100 100 NE 13 20 29.71 1006 7 11.265408 0 0
1:35 am 01:35 Cloudy with Light Rain 68 20 68 20 100 100 NE 12 19 29.71 1006 10 16.09344 0 0
1:55 am 01:55 Cloudy with Rain 66 19 66 19 100 100 NNE 7 11 29.71 1006 5 8.04672 0 0
2:15 am 02:15 Cloudy with Drizzle 68 20 68 20 100 100 NNE 10 17 29.71 1006 7 11.265408 0 0
2:35 am 02:35 Cloudy 68 20 68 20 100 100 NNE 7 11 29.71 1006 10 16.09344 0 0
2:55 am 02:55 Cloudy 68 20 68 20 100 100 NNE 9 15 29.71 1006 10 16.09344 0 0
3:15 am 03:15 Cloudy 68 20 68 20 100 100 NNE 7 11 29.71 1006 10 16.09344 0 0
3:35 am 03:35 Cloudy 68 20 68 20 100 100 N 10 17 29.71 1006 10 16.09344 0 0
3:55 am 03:55 Cloudy 68 20 68 20 100 100 N 9 15 29.71 1006 7 11.265408 0 0
4:15 am 04:15 Cloudy 68 20 68 20 100 100 NNE 9 15 29.71 1006 10 16.09344 0 0
4:35 am 04:35 Cloudy 68 20 68 20 100 100 NNE 10 17 29.71 1006 7 11.265408 0 0
4:55 am 04:55 Cloudy 68 20 68 20 100 100 N 12 19 29.71 1006 10 16.09344 0 0
5:15 am 05:15 Cloudy 68 20 68 20 100 100 N 10 17 29.71 1006 10 16.09344 0 0
5:35 am 05:35 Cloudy 68 20 68 20 100 100 NNE 12 19 29.71 1006 10 16.09344 0 0
5:55 am 05:55 Cloudy 68 20 68 20 100 100 N 12 19 29.71 1006 10 16.09344 0 0
6:15 am 06:15 Cloudy 68 20 68 20 100 100 NNE 12 19 29.74 1007 10 16.09344 0 0
6:35 am 06:35 Cloudy 68 20 68 20 100 100 NNE 15 24 29.74 1007 10 16.09344 0 0
6:55 am 06:55 Cloudy 68 20 68 20 100 100 NNE 10 17 29.74 1007 10 16.09344 0 0
7:15 am 07:15 Partly Cloudy 68 20 66 19 94 94 NNE 10 17 29.74 1007 10 16.09344 0 0
7:35 am 07:35 Partly Cloudy 68 20 68 20 100 100 NNE 9 15 29.77 1008 10 16.09344 0 0
7:55 am 07:55 Mostly Cloudy 68 20 68 20 100 100 NNE 15 24 29.77 1008 10 16.09344 0 0
8:15 am 08:15 Partly Cloudy 70 21 68 20 94 94 NNE 13 20 29.77 1008 10 16.09344 0 0
8:35 am 08:35 Mostly Cloudy 70 21 66 19 88 88 NNE 13 20 29.8 1009 10 16.09344 0 0
8:55 am 08:55 Cloudy 70 21 66 19 88 88 NNE 15 24 29.8 1009 10 16.09344 0 0
9:15 am 09:15 Cloudy 70 21 64 18 83 83 NNE 8 13 29.8 1009 10 16.09344 0 0
9:35 am 09:35 Cloudy 70 21 64 18 83 83 NNE 14 22 29.8 1009 10 16.09344 0 0
9:55 am 09:55 Cloudy with Light Rain 70 21 64 18 83 83 NNE 15 24 29.8 1009 10 16.09344 0 0
10:15 am 10:15 Cloudy 70 21 64 18 83 83 NNE 14 22 29.8 1009 10 16.09344 0 0
10:35 am 10:35 Cloudy 68 20 64 18 88 88 N 14 22 29.83 1010 10 16.09344 0 0
10:55 am 10:55 Cloudy with Light Rain 68 20 64 18 88 88 NNE 13 20 29.83 1010 10 16.09344 0 0
11:15 am 11:15 Cloudy with Light Rain 68 20 64 18 88 88 N 14 22 29.83 1010 10 16.09344 0 0
11:35 am 11:35 Cloudy with Rain 68 20 64 18 88 88 NNE 10 17 29.83 1010 7 11.265408 0 0
11:55 am 11:55 Cloudy with Rain 66 19 64 18 94 94 N 9 15 29.83 1010 5 8.04672 0 0
12:15 pm 12:15 Cloudy with Light Rain 66 19 64 18 94 94 N 7 11 29.83 1010 7 11.265408 0 0
12:35 pm 12:35 Cloudy with Rain 66 19 64 18 94 94 N 8 13 29.83 1010 10 16.09344 0 0
12:55 pm 12:55 Cloudy with Light Rain 68 20 66 19 94 94 NNE 8 13 29.85 1011 10 16.09344 0 0
1:15 pm 13:15 Cloudy with Rain 68 20 64 18 88 88 NNE 9 15 29.85 1011 10 16.09344 0 0
1:35 pm 13:35 Cloudy with Light Rain 68 20 66 19 94 94 NNE 10 17 29.85 1011 10 16.09344 0 0
1:55 pm 13:55 Cloudy with Rain 70 21 64 18 83 83 NNE 10 17 29.85 1011 10 16.09344 0 0
2:15 pm 14:15 Cloudy with Rain 68 20 64 18 88 88 N 8 13 29.85 1011 7 11.265408 0 0
2:35 pm 14:35 Cloudy with Light Rain 70 21 66 19 88 88 N 7 11 29.85 1011 10 16.09344 0 0
2:55 pm 14:55 Cloudy with Rain 70 21 68 20 94 94 N 9 15 29.85 1011 10 16.09344 0 0
3:15 pm 15:15 Mostly Cloudy 72 22 68 20 88 88 N 10 17 29.85 1011 10 16.09344 0 0
3:35 pm 15:35 Sunny 73 23 68 20 83 83 N 10 17 29.85 1011 10 16.09344 0 0
3:55 pm 15:55 Sunny 73 23 68 20 83 83 N 9 15 29.85 1011 10 16.09344 0 0
4:15 pm 16:15 Partly Cloudy 77 25 68 20 74 74 N 8 13 29.85 1011 10 16.09344 0 0
4:35 pm 16:35 Mostly Cloudy 77 25 68 20 74 74 NE 10 17 29.85 1011 10 16.09344 0 0
4:55 pm 16:55 Cloudy 77 25 64 18 65 65 NNE 12 19 29.85 1011 10 16.09344 0 0
5:15 pm 17:15 Mostly Cloudy 75 24 63 17 65 65 N 10 17 29.85 1011 10 16.09344 0 0
5:35 pm 17:35 Partly Cloudy 75 24 61 16 61 61 N 9 15 29.85 1011 10 16.09344 0 0
5:55 pm 17:55 Sunny 77 25 61 16 57 57 N 13 20 29.85 1011 10 16.09344 0 0
6:15 pm 18:15 Mostly Cloudy 79 26 59 15 51 51 NNE 13 20 29.88 1012 10 16.09344 0 0
6:35 pm 18:35 Mostly Cloudy 79 26 57 14 48 48 NNE 9 15 29.88 1012 10 16.09344 0 0
6:55 pm 18:55 Partly Cloudy 79 26 57 14 48 48 N 8 13 29.88 1012 10 16.09344 0 0
7:15 pm 19:15 Sunny 79 26 57 14 48 48 NNE 9 15 29.88 1012 10 16.09344 0 0
7:35 pm 19:35 Sunny 77 25 55 13 47 47 N 9 15 29.91 1013 10 16.09344 0 0
7:55 pm 19:55 Sunny 75 24 55 13 50 50 N 9 15 29.91 1013 10 16.09344 0 0
8:15 pm 20:15 Sunny 73 23 55 13 53 53 N 7 11 29.91 1013 10 16.09344 0 0
8:35 pm 20:35 Clear 72 22 55 13 57 57 N 6 9 29.91 1013 10 16.09344 0 0
8:55 pm 20:55 Clear 70 21 55 13 60 60 N 6 9 29.94 1014 10 16.09344 0 0
9:15 pm 21:15 Clear 70 21 57 14 64 64 N 6 9 29.94 1014 10 16.09344 0 0
9:35 pm 21:35 Clear 70 21 55 13 60 60 N 6 9 29.94 1014 10 16.09344 0 0
9:55 pm 21:55 Clear 70 21 55 13 60 60 N 6 9 29.94 1014 10 16.09344 0 0
10:15 pm 22:15 Clear 68 20 55 13 64 64 N 6 9 29.94 1014 10 16.09344 0 0
10:35 pm 22:35 Clear 68 20 55 13 64 64 N 7 11 29.97 1015 10 16.09344 0 0
10:55 pm 22:55 Clear 68 20 55 13 64 64 N 7 11 29.97 1015 10 16.09344 0 0
11:15 pm 23:15 Clear 64 18 55 13 73 73 N 6 9 29.97 1015 10 16.09344 0 0
11:35 pm 23:35 Clear 64 18 55 13 73 73 N 7 11 29.97 1015 10 16.09344 0 0
11:55 pm 23:55 Clear 68 20 55 13 64 64 N 7 11 29.97 1015 10 16.09344 0 0

Powered by AerisWeather